GLD352 SLLP-SPJC

Flight info

Callsign GLD352
Flight time 1h 53m
Altitude 38000
Route DCT KOMPA DCT OLGAS DCT SIMEL UT323 SCO
Aircraft A320/M-SDFGIRY/S

Departure

Time 2026-05-05 21:44
Airport El Alto International Airport (SLLP)

Arrival

Time 2026-05-05 23:37
Airport Jorge Chávez International Airport (SPJC)
Time Latitude Longitude Altitude Speed Heading
2026-05-05 21:28 -16.50968 -68.17688 13336 ft 0 kts 27°
2026-05-05 21:29 -16.50969 -68.17688 13336 ft 0 kts 27°
2026-05-05 21:33 -16.50971 -68.17689 13336 ft 3 kts 27°
2026-05-05 21:33 -16.50996 -68.17699 13336 ft 4 kts
2026-05-05 21:33 -16.51021 -68.17698 13334 ft 4 kts 324°
2026-05-05 21:33 -16.51029 -68.17690 13335 ft 0 kts 299°
2026-05-05 21:36 -16.51029 -68.17689 13335 ft 0 kts 299°
2026-05-05 21:36 -16.51029 -68.17690 13335 ft 0 kts 299°
2026-05-05 21:36 -16.51018 -68.17708 13334 ft 6 kts 300°
2026-05-05 21:37 -16.50999 -68.17768 13336 ft 12 kts 281°
2026-05-05 21:37 -16.51001 -68.17871 13336 ft 15 kts 249°
2026-05-05 21:37 -16.51072 -68.17958 13334 ft 17 kts 226°
2026-05-05 21:37 -16.51169 -68.18063 13324 ft 24 kts 227°
2026-05-05 21:38 -16.51240 -68.18153 13311 ft 0 kts 232°
2026-05-05 21:38 -16.51254 -68.18173 13301 ft 8 kts 236°
2026-05-05 21:39 -16.51294 -68.18242 13302 ft 13 kts 239°
2026-05-05 21:39 -16.51336 -68.18343 13299 ft 17 kts 258°
2026-05-05 21:39 -16.51351 -68.18475 13298 ft 12 kts 265°
2026-05-05 21:39 -16.51353 -68.18574 13296 ft 16 kts 272°
2026-05-05 21:40 -16.51347 -68.18700 13293 ft 19 kts 272°
2026-05-05 21:40 -16.51343 -68.18851 13291 ft 23 kts 271°
2026-05-05 21:40 -16.51343 -68.18983 13285 ft 18 kts 271°
2026-05-05 21:40 -16.51338 -68.19127 13285 ft 22 kts 272°
2026-05-05 21:41 -16.51330 -68.19275 13280 ft 22 kts 271°
2026-05-05 21:41 -16.51326 -68.19433 13272 ft 23 kts 272°
2026-05-05 21:41 -16.51321 -68.19599 13263 ft 17 kts 271°
2026-05-05 21:41 -16.51318 -68.19754 13250 ft 25 kts 271°
2026-05-05 21:42 -16.51313 -68.19927 13235 ft 18 kts 271°
2026-05-05 21:42 -16.51309 -68.20092 13221 ft 27 kts 271°
2026-05-05 21:42 -16.51295 -68.20246 13211 ft 22 kts 284°
2026-05-05 21:42 -16.51303 -68.20302 13204 ft 2 kts 117°
2026-05-05 21:43 -16.51301 -68.20290 13205 ft 3 kts 88°
2026-05-05 21:43 -16.51305 -68.20070 13228 ft 58 kts 92°
2026-05-05 21:43 -16.51327 -68.19473 13268 ft 105 kts 91°
2026-05-05 21:43 -16.51355 -68.18544 13290 ft 147 kts 91°
2026-05-05 21:44 -16.51389 -68.17332 13347 ft 181 kts 89°
2026-05-05 21:44 -16.51376 -68.16121 14231 ft 151 kts 94°
2026-05-05 21:44 -16.51421 -68.14979 14380 ft 174 kts 86°
2026-05-05 21:44 -16.51304 -68.13630 14641 ft 186 kts 75°
2026-05-05 21:45 -16.50858 -68.12471 15526 ft 166 kts 49°
2026-05-05 21:45 -16.49889 -68.11691 15660 ft 196 kts 15°
2026-05-05 21:45 -16.48466 -68.11690 15930 ft 216 kts 337°
2026-05-05 21:45 -16.47240 -68.12615 16487 ft 225 kts 310°
2026-05-05 21:46 -16.46412 -68.14083 16804 ft 249 kts 283°
2026-05-05 21:46 -16.46302 -68.15980 17028 ft 277 kts 267°
2026-05-05 21:46 -16.46437 -68.18071 17346 ft 301 kts 266°
2026-05-05 21:46 -16.46593 -68.20326 17656 ft 325 kts 266°
2026-05-05 21:47 -16.46726 -68.22761 17931 ft 349 kts 267°
2026-05-05 21:47 -16.46822 -68.25368 18162 ft 372 kts 268°
2026-05-05 21:47 -16.46883 -68.28125 18617 ft 386 kts 269°
2026-05-05 21:47 -16.46917 -68.30942 19277 ft 391 kts 269°
2026-05-05 21:48 -16.46938 -68.33798 19917 ft 396 kts 270°
2026-05-05 21:48 -16.46954 -68.36687 20540 ft 402 kts 270°
2026-05-05 21:48 -16.46974 -68.39617 21157 ft 407 kts 270°
2026-05-05 21:48 -16.47000 -68.42586 21770 ft 413 kts 270°
2026-05-05 21:49 -16.47028 -68.45596 22160 ft 418 kts 270°
2026-05-05 21:49 -16.47057 -68.48641 22805 ft 423 kts 271°
2026-05-05 21:49 -16.47088 -68.51727 23476 ft 428 kts 271°
2026-05-05 21:49 -16.47121 -68.54843 24046 ft 432 kts 270°
2026-05-05 21:50 -16.47153 -68.57971 24666 ft 433 kts 270°
2026-05-05 21:50 -16.47184 -68.61112 25194 ft 435 kts 270°
2026-05-05 21:50 -16.47211 -68.64270 25698 ft 437 kts 270°
2026-05-05 21:50 -16.47238 -68.67439 26168 ft 439 kts 270°
2026-05-05 21:51 -16.47264 -68.70629 26612 ft 441 kts 271°
2026-05-05 21:51 -16.47290 -68.73831 27032 ft 443 kts 271°
2026-05-05 21:51 -16.47318 -68.77048 27437 ft 445 kts 271°
2026-05-05 21:51 -16.47347 -68.80279 27822 ft 447 kts 271°
2026-05-05 21:52 -16.47402 -68.86784 28530 ft 451 kts 271°
2026-05-05 21:52 -16.47430 -68.90057 28877 ft 453 kts 271°
2026-05-05 21:52 -16.47456 -68.93345 29218 ft 455 kts 271°
2026-05-05 21:53 -16.47479 -68.96651 29560 ft 457 kts 271°
2026-05-05 21:53 -16.47500 -68.99970 29905 ft 459 kts 271°
2026-05-05 21:53 -16.47457 -69.03303 30220 ft 461 kts 273°
2026-05-05 21:53 -16.47328 -69.06634 30519 ft 462 kts 275°
2026-05-05 21:54 -16.47142 -69.09974 30951 ft 460 kts 275°
2026-05-05 21:54 -16.46937 -69.13291 31435 ft 457 kts 276°
2026-05-05 21:54 -16.46740 -69.16584 31922 ft 454 kts 275°
2026-05-05 21:54 -16.46558 -69.19858 32422 ft 452 kts 275°
2026-05-05 21:55 -16.46396 -69.23077 32922 ft 449 kts 275°
2026-05-05 21:55 -16.46244 -69.26360 33440 ft 447 kts 275°
2026-05-05 21:55 -16.46103 -69.29537 33954 ft 444 kts 275°
2026-05-05 21:55 -16.45961 -69.32736 34415 ft 441 kts 275°
2026-05-05 21:56 -16.45817 -69.35922 34850 ft 439 kts 275°
2026-05-05 21:56 -16.45668 -69.39093 35259 ft 437 kts 275°
2026-05-05 21:56 -16.45516 -69.42251 35656 ft 436 kts 275°
2026-05-05 21:56 -16.45358 -69.45402 36030 ft 435 kts 275°
2026-05-05 21:57 -16.45199 -69.48544 36397 ft 434 kts 275°
2026-05-05 21:57 -16.45041 -69.51674 36768 ft 433 kts 275°
2026-05-05 21:57 -16.44888 -69.54800 37143 ft 431 kts 275°
2026-05-05 21:57 -16.44737 -69.57914 37501 ft 430 kts 275°
2026-05-05 21:58 -16.44586 -69.61023 37833 ft 429 kts 275°
2026-05-05 21:58 -16.44437 -69.64134 38035 ft 432 kts 274°
2026-05-05 21:58 -16.44283 -69.67275 38078 ft 438 kts 274°
2026-05-05 21:59 -16.43958 -69.73700 38074 ft 451 kts 275°
2026-05-05 21:59 -16.43628 -69.80319 38087 ft 464 kts 274°
2026-05-05 21:59 -16.43462 -69.83664 38543 ft 460 kts 274°
2026-05-05 22:00 -16.43299 -69.86966 39112 ft 452 kts 274°
2026-05-05 22:00 -16.43133 -69.90246 39261 ft 455 kts 275°
2026-05-05 22:00 -16.42963 -69.93525 39475 ft 456 kts 275°
2026-05-05 22:00 -16.42794 -69.96780 39798 ft 442 kts 275°
2026-05-05 22:01 -16.42635 -69.99937 39565 ft 435 kts 275°
2026-05-05 22:01 -16.42477 -70.03088 38928 ft 438 kts 275°
2026-05-05 22:01 -16.42315 -70.06267 38307 ft 438 kts 275°
2026-05-05 22:01 -16.42153 -70.09405 38097 ft 429 kts 275°
2026-05-05 22:02 -16.41996 -70.12461 38110 ft 416 kts 275°
2026-05-05 22:02 -16.41839 -70.15462 38106 ft 404 kts 275°
2026-05-05 22:02 -16.41689 -70.18338 38114 ft 391 kts 275°
2026-05-05 22:02 -16.41544 -70.21124 38124 ft 379 kts 275°
2026-05-05 22:03 -16.41407 -70.23820 38123 ft 367 kts 275°
2026-05-05 22:03 -16.41285 -70.26200 38124 ft 356 kts 275°
2026-05-05 22:03 -16.41157 -70.28645 38127 ft 345 kts 275°
2026-05-05 22:03 -16.41026 -70.31125 38126 ft 333 kts 275°
2026-05-05 22:04 -16.40902 -70.33488 38119 ft 320 kts 275°
2026-05-05 22:04 -16.40784 -70.35759 38084 ft 309 kts 275°
2026-05-05 22:04 -16.40666 -70.37988 37715 ft 309 kts 276°
2026-05-05 22:04 -16.40541 -70.40240 37114 ft 316 kts 276°
2026-05-05 22:05 -16.40408 -70.42540 36669 ft 318 kts 276°
2026-05-05 22:05 -16.40272 -70.44817 36499 ft 311 kts 276°
2026-05-05 22:05 -16.40140 -70.47031 36351 ft 303 kts 277°
2026-05-05 22:05 -16.40050 -70.48508 36130 ft 302 kts 277°
2026-05-05 22:06 -16.39913 -70.50701 35671 ft 306 kts 277°
2026-05-05 22:06 -16.39770 -70.52919 35256 ft 307 kts 277°
2026-05-05 22:06 -16.39576 -70.55837 34977 ft 301 kts 277°
2026-05-05 22:06 -16.39431 -70.57989 34775 ft 295 kts 278°
2026-05-05 22:07 -16.39333 -70.59426 34566 ft 295 kts 278°
2026-05-05 22:07 -16.39184 -70.61565 34178 ft 298 kts 278°
2026-05-05 22:07 -16.39029 -70.63718 33779 ft 298 kts 278°
2026-05-05 22:07 -16.38872 -70.65857 33498 ft 294 kts 278°
2026-05-05 22:08 -16.38714 -70.67967 33215 ft 291 kts 278°
2026-05-05 22:08 -16.38554 -70.70072 32836 ft 292 kts 278°
2026-05-05 22:08 -16.38388 -70.72183 32439 ft 294 kts 278°
2026-05-05 22:08 -16.38217 -70.74297 32128 ft 292 kts 278°
2026-05-05 22:09 -16.38045 -70.76394 31870 ft 289 kts 279°
2026-05-05 22:09 -16.37869 -70.78477 31568 ft 289 kts 278°
2026-05-05 22:09 -16.37689 -70.80565 31252 ft 287 kts 278°
2026-05-05 22:09 -16.37492 -70.82568 31379 ft 274 kts 277°
2026-05-05 22:10 -16.37300 -70.84573 31095 ft 288 kts 279°
2026-05-05 22:10 -16.37082 -70.86688 30792 ft 297 kts 278°
2026-05-05 22:10 -16.36848 -70.88814 30903 ft 291 kts 281°
2026-05-05 22:10 -16.36551 -70.90848 31246 ft 279 kts 283°
2026-05-05 22:11 -16.36129 -70.92837 31374 ft 285 kts 288°
2026-05-05 22:11 -16.35551 -70.94827 31511 ft 289 kts 292°
2026-05-05 22:11 -16.34827 -70.96765 31854 ft 285 kts 296°
2026-05-05 22:11 -16.33967 -70.98580 32335 ft 274 kts 303°
2026-05-05 22:12 -16.32894 -71.00215 32593 ft 275 kts 311°
2026-05-05 22:12 -16.31568 -71.01700 32530 ft 286 kts 319°
2026-05-05 22:12 -16.29988 -71.02999 32642 ft 291 kts 327°
2026-05-05 22:12 -16.28250 -71.04024 33093 ft 283 kts 333°
2026-05-05 22:13 -16.26425 -71.04968 32875 ft 302 kts 333°
2026-05-05 22:13 -16.24535 -71.05975 32823 ft 314 kts 331°
2026-05-05 22:13 -16.22554 -71.07054 32728 ft 327 kts 332°
2026-05-05 22:13 -16.20533 -71.08220 32724 ft 338 kts 323°
2026-05-05 22:14 -16.18878 -71.09989 32741 ft 349 kts 303°
2026-05-05 22:14 -16.17971 -71.12339 32975 ft 354 kts 282°
2026-05-05 22:14 -16.17938 -71.14894 33473 ft 355 kts 267°
2026-05-05 22:14 -16.18220 -71.17432 33982 ft 351 kts 267°
2026-05-05 22:15 -16.18517 -71.19968 34168 ft 357 kts 267°
2026-05-05 22:15 -16.19154 -71.25208 34327 ft 372 kts 266°
2026-05-05 22:15 -16.19481 -71.27895 34459 ft 378 kts 266°
2026-05-05 22:16 -16.19812 -71.30633 34603 ft 384 kts 266°
2026-05-05 22:16 -16.20143 -71.33403 34732 ft 390 kts 267°
2026-05-05 22:16 -16.20477 -71.36225 34864 ft 395 kts 266°
2026-05-05 22:16 -16.20816 -71.39084 34996 ft 401 kts 266°
2026-05-05 22:17 -16.21160 -71.41977 35129 ft 406 kts 266°
2026-05-05 22:17 -16.21509 -71.44911 35264 ft 412 kts 266°
2026-05-05 22:17 -16.21861 -71.47874 35388 ft 417 kts 266°
2026-05-05 22:17 -16.22220 -71.50902 35523 ft 423 kts 266°
2026-05-05 22:18 -16.22580 -71.53963 35650 ft 429 kts 266°
2026-05-05 22:18 -16.22945 -71.57063 35778 ft 434 kts 266°
2026-05-05 22:18 -16.23316 -71.60201 35958 ft 438 kts 266°
2026-05-05 22:18 -16.23688 -71.63348 36255 ft 439 kts 266°
2026-05-05 22:19 -16.24060 -71.66500 36608 ft 438 kts 266°
2026-05-05 22:19 -16.24112 -71.69641 36933 ft 433 kts 279°
2026-05-05 22:19 -16.23387 -71.72688 36920 ft 437 kts 295°
2026-05-05 22:20 -16.20439 -71.78327 36773 ft 453 kts 300°
2026-05-05 22:20 -16.17273 -71.84124 36995 ft 461 kts 300°
2026-05-05 22:21 -16.13961 -71.89782 37484 ft 442 kts 302°
2026-05-05 22:21 -16.12375 -71.92459 37448 ft 428 kts 302°
2026-05-05 22:21 -16.10844 -71.95046 37643 ft 412 kts 302°
2026-05-05 22:21 -16.09364 -71.97568 37823 ft 407 kts 301°
2026-05-05 22:22 -16.07931 -72.00120 37915 ft 412 kts 300°
2026-05-05 22:22 -16.05106 -72.05391 38147 ft 420 kts 299°
2026-05-05 22:23 -16.02252 -72.10775 38199 ft 432 kts 300°
2026-05-05 22:23 -15.99304 -72.16251 38193 ft 434 kts 300°
2026-05-05 22:24 -15.96371 -72.21640 38197 ft 426 kts 300°
2026-05-05 22:24 -15.93464 -72.26984 38162 ft 424 kts 300°
2026-05-05 22:25 -15.90562 -72.32320 38172 ft 425 kts 300°
2026-05-05 22:25 -15.87659 -72.37674 38204 ft 425 kts 300°
2026-05-05 22:26 -15.84762 -72.43028 38197 ft 426 kts 300°
2026-05-05 22:26 -15.81865 -72.48363 38169 ft 418 kts 300°
2026-05-05 22:27 -15.79044 -72.53605 38130 ft 411 kts 300°
2026-05-05 22:27 -15.76305 -72.58676 38207 ft 398 kts 300°
2026-05-05 22:28 -15.73616 -72.63608 38204 ft 385 kts 300°
2026-05-05 22:28 -15.71039 -72.68339 38185 ft 368 kts 300°
2026-05-05 22:29 -15.68537 -72.72908 38187 ft 362 kts 301°
2026-05-05 22:29 -15.66040 -72.77460 38185 ft 353 kts 300°
2026-05-05 22:30 -15.63585 -72.81921 38188 ft 362 kts 301°
2026-05-05 22:30 -15.61025 -72.86536 38190 ft 376 kts 301°
2026-05-05 22:31 -15.58396 -72.91324 38189 ft 385 kts 300°
2026-05-05 22:31 -15.55798 -72.96131 38151 ft 383 kts 300°
2026-05-05 22:32 -15.53127 -73.00996 38170 ft 392 kts 301°
2026-05-05 22:32 -15.50470 -73.05863 38169 ft 388 kts 300°
2026-05-05 22:33 -15.47860 -73.10668 38138 ft 376 kts 300°
2026-05-05 22:33 -15.45267 -73.15374 38135 ft 380 kts 301°
2026-05-05 22:34 -15.42601 -73.20173 38139 ft 390 kts 301°
2026-05-05 22:34 -15.39858 -73.25128 38146 ft 403 kts 301°
2026-05-05 22:35 -15.37124 -73.30141 38143 ft 398 kts 300°
2026-05-05 22:35 -15.34358 -73.35181 38140 ft 401 kts 300°
2026-05-05 22:36 -15.31658 -73.40128 38137 ft 391 kts 301°
2026-05-05 22:36 -15.28980 -73.44992 38165 ft 390 kts 301°
2026-05-05 22:37 -15.26225 -73.49920 38163 ft 400 kts 301°
2026-05-05 22:37 -15.23434 -73.54953 38169 ft 406 kts 301°
2026-05-05 22:38 -15.20618 -73.60065 38173 ft 411 kts 301°
2026-05-05 22:38 -15.17835 -73.65161 38172 ft 402 kts 301°
2026-05-05 22:39 -15.15073 -73.70170 38196 ft 396 kts 300°
2026-05-05 22:39 -15.12363 -73.75057 38200 ft 395 kts 300°
2026-05-05 22:40 -15.09638 -73.79963 38189 ft 385 kts 300°
2026-05-05 22:40 -15.06975 -73.84763 38191 ft 383 kts 300°
2026-05-05 22:41 -15.04350 -73.89495 38215 ft 381 kts 301°
2026-05-05 22:41 -15.02122 -73.93507 38199 ft 384 kts 301°
2026-05-05 22:42 -14.99013 -73.99102 38203 ft 381 kts 300°
2026-05-05 22:42 -14.96849 -74.03027 38203 ft 378 kts 300°
2026-05-05 22:43 -14.94222 -74.07731 38193 ft 381 kts 301°
2026-05-05 22:43 -14.91592 -74.12450 38221 ft 376 kts 300°
2026-05-05 22:44 -14.89022 -74.17088 38230 ft 373 kts 300°
2026-05-05 22:44 -14.86384 -74.21795 38204 ft 382 kts 301°
2026-05-05 22:45 -14.83689 -74.26603 38207 ft 392 kts 301°
2026-05-05 22:45 -14.80962 -74.31494 38239 ft 394 kts 300°
2026-05-05 22:46 -14.78190 -74.36469 38224 ft 403 kts 300°
2026-05-05 22:46 -14.75395 -74.41507 38218 ft 402 kts 300°
2026-05-05 22:47 -14.72629 -74.46494 38219 ft 399 kts 300°
2026-05-05 22:47 -14.69880 -74.51427 38185 ft 398 kts 300°
2026-05-05 22:48 -14.67076 -74.56401 38214 ft 398 kts 300°
2026-05-05 22:48 -14.64265 -74.61410 38212 ft 404 kts 300°
2026-05-05 22:49 -14.61436 -74.66460 38167 ft 408 kts 300°
2026-05-05 22:49 -14.58599 -74.71548 38165 ft 407 kts 300°
2026-05-05 22:50 -14.55797 -74.76578 38170 ft 402 kts 300°
2026-05-05 22:50 -14.52942 -74.81621 38118 ft 410 kts 300°
2026-05-05 22:51 -14.50110 -74.86663 38121 ft 404 kts 300°
2026-05-05 22:51 -14.48732 -74.89144 38115 ft 393 kts 300°
2026-05-05 22:51 -14.47350 -74.91626 38122 ft 394 kts 300°
2026-05-05 22:52 -14.44589 -74.96521 38123 ft 393 kts 300°
2026-05-05 22:52 -14.41837 -75.01407 38158 ft 392 kts 301°
2026-05-05 22:53 -14.39103 -75.06265 38164 ft 393 kts 301°
2026-05-05 22:53 -14.36320 -75.11181 38134 ft 403 kts 301°
2026-05-05 22:54 -14.33505 -75.16175 38127 ft 399 kts 300°
2026-05-05 22:54 -14.30694 -75.21161 38132 ft 404 kts 300°
2026-05-05 22:55 -14.27858 -75.26185 38132 ft 408 kts 301°
2026-05-05 22:55 -14.25011 -75.31237 38133 ft 408 kts 300°
2026-05-05 22:56 -14.22187 -75.36260 38087 ft 399 kts 300°
2026-05-05 22:56 -14.19392 -75.41218 38092 ft 403 kts 301°
2026-05-05 22:57 -14.16547 -75.46220 38117 ft 407 kts 301°
2026-05-05 22:57 -14.13659 -75.51302 38068 ft 409 kts 300°
2026-05-05 22:58 -14.10838 -75.56324 38069 ft 410 kts 300°
2026-05-05 22:58 -14.07931 -75.61435 38070 ft 414 kts 300°
2026-05-05 22:59 -14.05036 -75.66545 38034 ft 412 kts 300°
2026-05-05 22:59 -14.02157 -75.71632 38033 ft 410 kts 300°
2026-05-05 23:00 -13.97954 -75.79073 37998 ft 395 kts 301°
2026-05-05 23:00 -13.95191 -75.83931 38003 ft 387 kts 301°
2026-05-05 23:01 -13.92449 -75.88726 38007 ft 384 kts 301°
2026-05-05 23:01 -13.89770 -75.93442 37968 ft 376 kts 301°
2026-05-05 23:02 -13.87185 -75.98009 37949 ft 364 kts 301°
2026-05-05 23:02 -13.84646 -76.02459 37940 ft 362 kts 301°
2026-05-05 23:03 -13.82065 -76.06934 37937 ft 368 kts 301°
2026-05-05 23:03 -13.79410 -76.11547 37927 ft 380 kts 301°
2026-05-05 23:04 -13.76718 -76.16273 37920 ft 386 kts 301°
2026-05-05 23:04 -13.73626 -76.20790 37921 ft 393 kts 314°
2026-05-05 23:05 -13.69222 -76.24297 36786 ft 415 kts 327°
2026-05-05 23:05 -13.66743 -76.25886 35797 ft 423 kts 328°
2026-05-05 23:05 -13.64233 -76.27480 34865 ft 426 kts 328°
2026-05-05 23:06 -13.61698 -76.29086 33890 ft 430 kts 328°
2026-05-05 23:06 -13.59143 -76.30701 33057 ft 433 kts 329°
2026-05-05 23:06 -13.56587 -76.32321 32085 ft 432 kts 329°
2026-05-05 23:06 -13.54015 -76.33961 31194 ft 433 kts 329°
2026-05-05 23:07 -13.51469 -76.35596 30334 ft 432 kts 329°
2026-05-05 23:07 -13.48920 -76.37230 29555 ft 430 kts 329°
2026-05-05 23:07 -13.46391 -76.38850 28728 ft 428 kts 329°
2026-05-05 23:07 -13.43873 -76.40457 28063 ft 424 kts 329°
2026-05-05 23:08 -13.41375 -76.42044 27441 ft 420 kts 329°
2026-05-05 23:08 -13.38906 -76.43611 26790 ft 416 kts 329°
2026-05-05 23:08 -13.36459 -76.45169 26136 ft 412 kts 329°
2026-05-05 23:08 -13.34047 -76.46712 25412 ft 408 kts 329°
2026-05-05 23:09 -13.31651 -76.48251 24721 ft 403 kts 329°
2026-05-05 23:09 -13.29276 -76.49774 24099 ft 401 kts 329°
2026-05-05 23:09 -13.26917 -76.51279 23547 ft 398 kts 329°
2026-05-05 23:09 -13.24569 -76.52772 22795 ft 397 kts 329°
2026-05-05 23:10 -13.22234 -76.54254 22132 ft 392 kts 329°
2026-05-05 23:10 -13.19928 -76.55725 21353 ft 388 kts 329°
2026-05-05 23:10 -13.17654 -76.57186 20536 ft 385 kts 330°
2026-05-05 23:10 -13.15399 -76.58632 19753 ft 381 kts 330°
2026-05-05 23:11 -13.13154 -76.60063 19082 ft 379 kts 330°
2026-05-05 23:11 -13.10886 -76.61493 18592 ft 376 kts 330°
2026-05-05 23:11 -13.08673 -76.62884 18015 ft 370 kts 330°
2026-05-05 23:11 -13.06521 -76.64249 17200 ft 369 kts 329°
2026-05-05 23:12 -13.04344 -76.65627 16606 ft 367 kts 329°
2026-05-05 23:12 -13.02166 -76.67010 15898 ft 362 kts 329°
2026-05-05 23:12 -13.00039 -76.68368 15143 ft 360 kts 329°
2026-05-05 23:12 -12.97933 -76.69721 14366 ft 356 kts 329°
2026-05-05 23:13 -12.95848 -76.71059 13560 ft 351 kts 329°
2026-05-05 23:13 -12.93792 -76.72373 12369 ft 346 kts 329°
2026-05-05 23:13 -12.91770 -76.73658 11351 ft 338 kts 328°
2026-05-05 23:13 -12.89799 -76.74907 10494 ft 330 kts 328°
2026-05-05 23:14 -12.87860 -76.76138 10094 ft 329 kts 328°
2026-05-05 23:14 -12.85951 -76.77344 9975 ft 310 kts 328°
2026-05-05 23:14 -12.84175 -76.78454 9989 ft 296 kts 328°
2026-05-05 23:14 -12.82423 -76.79546 10002 ft 293 kts 328°
2026-05-05 23:15 -12.80701 -76.80635 10004 ft 292 kts 328°
2026-05-05 23:15 -12.78984 -76.81730 10006 ft 293 kts 328°
2026-05-05 23:15 -12.77246 -76.82835 10006 ft 294 kts 328°
2026-05-05 23:15 -12.75508 -76.83933 9933 ft 291 kts 328°
2026-05-05 23:16 -12.73799 -76.85013 9275 ft 286 kts 328°
2026-05-05 23:16 -12.72112 -76.86084 8486 ft 284 kts 328°
2026-05-05 23:16 -12.71016 -76.86785 8146 ft 277 kts 328°
2026-05-05 23:16 -12.69364 -76.87845 7999 ft 281 kts 328°
2026-05-05 23:17 -12.67687 -76.88918 7994 ft 282 kts 328°
2026-05-05 23:17 -12.66017 -76.89985 7998 ft 286 kts 328°
2026-05-05 23:17 -12.64331 -76.91049 7995 ft 285 kts 328°
2026-05-05 23:17 -12.62654 -76.92104 7995 ft 283 kts 328°
2026-05-05 23:18 -12.60982 -76.93156 7994 ft 281 kts 328°
2026-05-05 23:18 -12.59317 -76.94211 8001 ft 283 kts 328°
2026-05-05 23:18 -12.57646 -76.95249 7998 ft 279 kts 331°
2026-05-05 23:18 -12.55900 -76.96135 8000 ft 280 kts 333°
2026-05-05 23:19 -12.54161 -76.97021 8000 ft 284 kts 333°
2026-05-05 23:19 -12.52372 -76.97912 8000 ft 283 kts 334°
2026-05-05 23:19 -12.50599 -76.98782 8002 ft 283 kts 334°
2026-05-05 23:19 -12.48854 -76.99638 7997 ft 279 kts 334°
2026-05-05 23:20 -12.47087 -77.00535 8000 ft 280 kts 333°
2026-05-05 23:20 -12.45343 -77.01438 7993 ft 281 kts 333°
2026-05-05 23:20 -12.43602 -77.02343 7994 ft 281 kts 333°
2026-05-05 23:20 -12.41847 -77.03236 7995 ft 282 kts 333°
2026-05-05 23:21 -12.40065 -77.04117 7996 ft 285 kts 334°
2026-05-05 23:21 -12.38290 -77.04991 7997 ft 284 kts 334°
2026-05-05 23:21 -12.36521 -77.05875 7997 ft 282 kts 333°
2026-05-05 23:21 -12.34742 -77.06764 7999 ft 285 kts 334°
2026-05-05 23:22 -12.32960 -77.07641 7998 ft 286 kts 334°
2026-05-05 23:22 -12.31168 -77.08506 7997 ft 284 kts 334°
2026-05-05 23:22 -12.29378 -77.09376 7998 ft 284 kts 334°
2026-05-05 23:22 -12.27595 -77.10247 8000 ft 285 kts 334°
2026-05-05 23:23 -12.25815 -77.11119 7998 ft 284 kts 334°
2026-05-05 23:23 -12.24036 -77.12000 8000 ft 284 kts 334°
2026-05-05 23:23 -12.22259 -77.12889 8002 ft 285 kts 334°
2026-05-05 23:23 -12.20482 -77.13783 8003 ft 286 kts 333°
2026-05-05 23:24 -12.18697 -77.14676 8005 ft 284 kts 334°
2026-05-05 23:24 -12.16914 -77.15561 8004 ft 286 kts 334°
2026-05-05 23:24 -12.15128 -77.16430 7894 ft 283 kts 334°
2026-05-05 23:24 -12.13370 -77.17277 7657 ft 274 kts 334°
2026-05-05 23:25 -12.11692 -77.18091 7447 ft 262 kts 334°
2026-05-05 23:25 -12.10068 -77.18890 7066 ft 258 kts 334°
2026-05-05 23:25 -12.08446 -77.19693 6618 ft 259 kts 334°
2026-05-05 23:25 -12.06822 -77.20494 6240 ft 255 kts 334°
2026-05-05 23:26 -12.05226 -77.21286 5767 ft 253 kts 334°
2026-05-05 23:26 -12.03641 -77.22073 5306 ft 254 kts 334°
2026-05-05 23:26 -12.02062 -77.22855 4920 ft 251 kts 334°
2026-05-05 23:26 -12.00505 -77.23636 4598 ft 246 kts 334°
2026-05-05 23:27 -11.98985 -77.24423 4255 ft 244 kts 333°
2026-05-05 23:27 -11.97481 -77.25210 3835 ft 241 kts 333°
2026-05-05 23:27 -11.95995 -77.25993 3337 ft 240 kts 333°
2026-05-05 23:27 -11.94506 -77.26776 2839 ft 240 kts 333°
2026-05-05 23:28 -11.93025 -77.27553 2310 ft 239 kts 333°
2026-05-05 23:28 -11.91551 -77.28319 1807 ft 236 kts 334°
2026-05-05 23:28 -11.90060 -77.29065 1691 ft 242 kts 334°
2026-05-05 23:28 -11.88538 -77.29813 1690 ft 245 kts 334°
2026-05-05 23:29 -11.86991 -77.30554 1692 ft 244 kts 339°
2026-05-05 23:29 -11.85337 -77.30809 1694 ft 239 kts
2026-05-05 23:29 -11.83797 -77.30218 1700 ft 238 kts 37°
2026-05-05 23:29 -11.82734 -77.28965 1700 ft 235 kts 64°
2026-05-05 23:30 -11.82030 -77.27532 1704 ft 208 kts 65°
2026-05-05 23:30 -11.81454 -77.26335 1687 ft 171 kts 65°
2026-05-05 23:30 -11.80986 -77.25300 1685 ft 154 kts 74°
2026-05-05 23:30 -11.80856 -77.24260 1689 ft 146 kts 96°
2026-05-05 23:31 -11.81101 -77.23275 1691 ft 142 kts 116°
2026-05-05 23:31 -11.81632 -77.22464 1724 ft 138 kts 136°
2026-05-05 23:31 -11.82395 -77.21857 1718 ft 140 kts 147°
2026-05-05 23:31 -11.83188 -77.21276 1708 ft 141 kts 146°
2026-05-05 23:32 -11.83983 -77.20686 1706 ft 141 kts 145°
2026-05-05 23:32 -11.84794 -77.20125 1703 ft 141 kts 150°
2026-05-05 23:32 -11.85650 -77.19628 1705 ft 143 kts 153°
2026-05-05 23:32 -11.86528 -77.19168 1704 ft 143 kts 156°
2026-05-05 23:33 -11.87426 -77.18717 1698 ft 143 kts 155°
2026-05-05 23:33 -11.88309 -77.18273 1701 ft 142 kts 155°
2026-05-05 23:33 -11.89194 -77.17834 1697 ft 141 kts 156°
2026-05-05 23:33 -11.90081 -77.17397 1699 ft 141 kts 155°
2026-05-05 23:34 -11.90942 -77.16967 1707 ft 138 kts 156°
2026-05-05 23:34 -11.91784 -77.16551 1698 ft 134 kts 155°
2026-05-05 23:34 -11.92620 -77.16140 1692 ft 135 kts 155°
2026-05-05 23:34 -11.93461 -77.15729 1590 ft 133 kts 155°
2026-05-05 23:35 -11.94289 -77.15320 1451 ft 132 kts 156°
2026-05-05 23:35 -11.95117 -77.14911 1287 ft 132 kts 156°
2026-05-05 23:35 -11.95934 -77.14508 1118 ft 131 kts 156°
2026-05-05 23:35 -11.96759 -77.14101 942 ft 132 kts 155°
2026-05-05 23:36 -11.97598 -77.13689 765 ft 132 kts 155°
2026-05-05 23:36 -11.98430 -77.13278 596 ft 133 kts 155°
2026-05-05 23:36 -11.99255 -77.12868 399 ft 132 kts 156°
2026-05-05 23:36 -12.00053 -77.12465 265 ft 128 kts 156°
2026-05-05 23:37 -12.00863 -77.12074 95 ft 124 kts 156°
2026-05-05 23:37 -12.01571 -77.11738 63 ft 97 kts 157°
2026-05-05 23:37 -12.01918 -77.11567 65 ft 12 kts 151°
2026-05-05 23:37 -12.01934 -77.11558 65 ft 5 kts 149°
2026-05-05 23:38 -12.01986 -77.11530 64 ft 12 kts 154°